Погода в Воровсколесской

Россия / Ставропольский край     44°22′37″N   42°24′27″E
темп.,
°C
ветер,
м/с
пор.,
м/с
влажн.,
%
обл.,
%
осадки,
мм/ч
давл.,
гПа
погр.,
м
15 апреля, чт
чт1500:00+7зсз118198 0.0 101810
03:00+6зюз118537 0.0 101811
06:00+6ююз118465 0.0 101910
09:00+13юв11625 0.0 1018442
12:00+16ссв224199 0.0 10161462
15:00+17с2240100 0.0 10161864
18:00+14ссв3461100 0.0 101782
21:00+11всв116892 0.0 101810
16 апреля, пт
пт1600:00+10вюв227425 0.0 101812
03:00+8юв22815 0.0 101818
06:00+8юв3381100 0.0 101956
09:00+14вюв575828 0.0 1018618
12:00+18вюв7747100 0.0 10171318
15:00+19вюв784319 0.0 10151729
18:00+10ссз5893100 13.0 1018227
21:00+9з2294100 13.9 102030
17 апреля, сб
сб1700:00+9с1196100 0.3 101915
03:00+10ссз1296100 0.3 101999
06:00+10зсз3596100 0.1 1020386
09:00+8сз4892100 3.9 1023545
12:00+9сз3589100 1.3 1023469
15:00+9зюз1292100 4.2 1023205
18:00+9ю2293100 1.9 102395
21:00+8ююв3491100 2.0 1023142
18 апреля, вс
вс1800:00+8юв249098 0.0 1022129
03:00+7вюв3593100 0.0 1021112
06:00+7в3895100 0.0 1020276
09:00+12вюв688198 0.0 1017595
12:00+14вюв797260 0.0 1015726
15:00+16вюв556778 0.6 1015943
18:00+14вюв368598 1.9 1016370
21:00+11юв49954 2.6 1017238
19 апреля, пн
пн1900:00+11ююв229389 0.1 101613
03:00+10юв119179 0.1 101611
06:00+10юв0191100 0.0 101610
09:00+15ссз2276100 0.0 1016356
12:00+18ссв326622 0.0 1015883
15:00+19всв4661100 0.0 10131253
18:00+16всв41077100 0.1 1012427
21:00+14в5138998 0.7 1011346